Time,TemperatureF,DewpointF,PressureIn,WindDirection,WindDirectionDegrees,WindSpeedMPH,WindSpeedGustMPH,Humidity,HourlyPrecipIn,Conditions,Clouds,dailyrainin,SoftwareType,DateUTC
2013-08-06 00:02:00,69.0,65.0,29.86,ESE,121,0.0,0.0,88,0.00,,,0.30,,2013-08-06 05:02:00,
2013-08-06 00:11:00,69.0,65.0,29.85,East,97,0.0,1.0,88,0.00,,,0.30,,2013-08-06 05:11:00,
2013-08-06 00:22:00,69.0,65.0,29.85,SE,134,0.0,1.0,88,0.00,,,0.30,,2013-08-06 05:22:00,
2013-08-06 00:32:00,69.0,65.0,29.85,SE,128,0.0,1.0,88,0.00,,,0.30,,2013-08-06 05:32:00,
2013-08-06 00:43:00,69.0,65.0,29.85,NE,54,0.0,1.0,88,0.00,,,0.30,,2013-08-06 05:43:00,
2013-08-06 00:53:00,69.0,65.0,29.87,SW,234,0.0,2.0,88,0.00,,,0.30,,2013-08-06 05:53:00,
2013-08-06 01:02:00,69.0,65.0,29.88,NNE,13,0.0,1.0,88,0.00,,,0.30,,2013-08-06 06:02:00,
2013-08-06 01:11:00,69.0,65.0,29.88,South,186,0.0,1.0,88,0.00,,,0.30,,2013-08-06 06:11:00,
2013-08-06 01:22:00,69.0,65.0,29.88,West,276,1.0,2.0,88,0.00,,,0.30,,2013-08-06 06:22:00,
2013-08-06 01:32:00,69.0,65.0,29.88,NW,311,0.0,7.0,88,0.00,,,0.30,,2013-08-06 06:32:00,
2013-08-06 01:43:00,69.0,65.0,29.88,NW,320,0.0,5.0,88,0.00,,,0.30,,2013-08-06 06:43:00,
2013-08-06 01:52:00,69.0,65.0,29.88,NNE,24,0.0,1.0,88,0.00,,,0.30,,2013-08-06 06:52:00,
2013-08-06 02:01:00,69.0,65.0,29.88,NNE,24,0.0,1.0,88,0.00,,,0.30,,2013-08-06 07:01:00,
2013-08-06 02:12:00,69.0,65.0,29.87,NNE,24,0.0,0.0,88,0.00,,,0.30,,2013-08-06 07:12:00,
2013-08-06 02:22:00,69.0,65.0,29.87,NNE,24,0.0,1.0,88,0.00,,,0.30,,2013-08-06 07:22:00,
2013-08-06 02:32:00,68.0,64.0,29.87,NNE,24,0.0,1.0,88,0.00,,,0.30,,2013-08-06 07:32:00,
2013-08-06 02:43:00,68.0,64.0,29.87,North,355,0.0,3.0,88,0.00,,,0.30,,2013-08-06 07:43:00,
2013-08-06 02:53:00,68.0,64.0,29.87,NW,319,0.0,1.0,88,0.00,,,0.30,,2013-08-06 07:53:00,
2013-08-06 03:01:00,68.0,64.0,29.86,West,267,0.0,3.0,88,0.00,,,0.30,,2013-08-06 08:01:00,
2013-08-06 03:22:00,68.0,64.0,29.85,West,267,0.0,0.0,88,0.00,,,0.30,,2013-08-06 08:22:00,
2013-08-06 03:33:00,68.0,64.0,29.84,West,267,0.0,0.0,88,0.00,,,0.30,,2013-08-06 08:33:00,
2013-08-06 03:43:00,68.0,64.0,29.84,West,267,0.0,1.0,88,0.00,,,0.30,,2013-08-06 08:43:00,
2013-08-06 03:52:00,68.0,64.0,29.83,West,267,0.0,0.0,88,0.00,,,0.30,,2013-08-06 08:52:00,
2013-08-06 04:01:00,68.0,65.0,29.83,West,273,0.0,2.0,89,0.00,,,0.30,,2013-08-06 09:01:00,
2013-08-06 04:22:00,68.0,65.0,29.83,West,273,0.0,0.0,89,0.00,,,0.30,,2013-08-06 09:22:00,
2013-08-06 04:32:00,68.0,65.0,29.83,West,273,0.0,1.0,89,0.00,,,0.30,,2013-08-06 09:32:00,
2013-08-06 04:43:00,68.0,65.0,29.83,West,273,0.0,1.0,89,0.00,,,0.30,,2013-08-06 09:43:00,
2013-08-06 04:52:00,68.0,65.0,29.83,West,273,0.0,1.0,89,0.00,,,0.30,,2013-08-06 09:52:00,
2013-08-06 05:01:00,68.0,65.0,29.83,SW,217,0.0,1.0,89,0.00,,,0.30,,2013-08-06 10:01:00,
2013-08-06 05:12:00,68.0,65.0,29.84,SSW,196,0.0,1.0,89,0.00,,,0.30,,2013-08-06 10:12:00,
2013-08-06 05:22:00,68.0,65.0,29.84,SSW,196,0.0,1.0,89,0.00,,,0.30,,2013-08-06 10:22:00,
2013-08-06 05:32:00,68.0,65.0,29.84,SSW,196,0.0,1.0,89,0.00,,,0.30,,2013-08-06 10:32:00,
2013-08-06 05:43:00,68.0,65.0,29.84,SSW,196,0.0,1.0,89,0.00,,,0.30,,2013-08-06 10:43:00,
2013-08-06 05:52:00,68.0,65.0,29.84,SSW,196,0.0,1.0,89,0.00,,,0.30,,2013-08-06 10:52:00,
2013-08-06 06:01:00,68.0,65.0,29.84,SSW,196,0.0,1.0,89,0.00,,,0.30,,2013-08-06 11:01:00,